Weather History for Plainview, TX

Change the Weather History Date:

Thursday, January 12, 2012

  Actual Average Record
Temperature  
Mean Temperature 28 °F -  
Max Temperature 42 °F 48 °F 75 °F (2014)
Min Temperature 15 °F 24 °F -6 °F (1918)
Degree Days  
Heating Degree Days 36    
Moisture  
Dew Point 11 °F    
Average Humidity 52    
Maximum Humidity 73    
Minimum Humidity 26    
Precipitation  
Precipitation 0.00 in - - ()
Sea Level Pressure  
Sea Level Pressure 30.20 in    
Wind  
Wind Speed 14 mph (NW)    
Max Wind Speed 20 mph    
Max Gust Speed 30 mph    
Visibility 10 miles    
Events      
Averages and records for this station are not official NWS values.
T = Trace of Precipitation, MM = Missing Value Source: NWS Daily Summary

Daily Weather History Graph

Daily Weather History Graph

Search for Another Location

Airport:

Trip Planner

Search our weather history database for the weather conditions in past years. The results will help you decide how hot, cold, wet, or windy it might be!

Date:

Astronomy

Jan. 12, 2012 Rise Set
Actual Time 7:53 AM CST 5:57 PM CST
Civil Twilight 7:25 AM CST 6:24 PM CST
Nautical Twilight 6:54 AM CST 6:55 PM CST
Astronomical Twilight 6:24 AM CST 7:25 PM CST
Moon 9:51 PM CST (1/12) 9:49 AM CST (1/12)
Length of Visible Light 10h 58m
Length of Day
10h 04m
Waning Gibbous, 87% of the Moon is Illuminated
Jan 12
Waning Gibbous
Jan 16
Last Quarter
Jan 23
New
Jan 30
First Quarter
Feb 7
Full

Hourly Weather History & Observations

Time (CST) Temp. Windchill Dew Point Humidity Pressure Visibility Wind Dir Wind Speed Gust Speed Precip Events Conditions
12:15 AM 30.2 °F 17.8 °F 21.2 °F 69% 30.16 in 10.0 mi North 19.6 mph 29.9 mph N/A   Mostly Cloudy
12:35 AM 30.2 °F 17.8 °F 19.4 °F 64% 30.17 in 10.0 mi North 19.6 mph 26.5 mph N/A   Overcast
12:55 AM 28.4 °F 15.4 °F 17.6 °F 64% 30.17 in 10.0 mi North 19.6 mph 27.6 mph N/A   Mostly Cloudy
1:15 AM 26.6 °F 14.3 °F 15.8 °F 64% 30.18 in 10.0 mi NNE 16.1 mph 25.3 mph N/A   Scattered Clouds
1:35 AM 26.6 °F 15.7 °F 12.2 °F 55% 30.20 in 10.0 mi North 12.7 mph 21.9 mph N/A   Scattered Clouds
1:55 AM 26.6 °F 13.8 °F 14.0 °F 59% 30.21 in 10.0 mi North 17.3 mph - N/A   Clear
2:15 AM 24.8 °F 12.4 °F 14.0 °F 64% 30.22 in 10.0 mi North 15.0 mph - N/A   Clear
2:35 AM 23.0 °F 13.9 °F 14.0 °F 68% 30.23 in 10.0 mi NNW 8.1 mph - N/A   Clear
2:55 AM 23.0 °F 13.9 °F 12.2 °F 63% 30.23 in 10.0 mi North 8.1 mph - N/A   Clear
3:15 AM 21.2 °F 9.5 °F 10.4 °F 63% 30.21 in 10.0 mi North 11.5 mph - N/A   Clear
3:35 AM 23.0 °F 10.1 °F 10.4 °F 59% 30.20 in 10.0 mi North 15.0 mph - N/A   Clear
3:55 AM 21.2 °F 10.9 °F 8.6 °F 58% 30.20 in 10.0 mi NNW 9.2 mph - N/A   Clear
4:15 AM 19.4 °F 9.5 °F 10.4 °F 68% 30.20 in 10.0 mi NNW 8.1 mph - N/A   Clear
4:35 AM 21.2 °F 10.1 °F 10.4 °F 63% 30.20 in 10.0 mi NNW 10.4 mph - N/A   Clear
4:55 AM 19.4 °F 7.9 °F 10.4 °F 68% 30.19 in 10.0 mi NNW 10.4 mph - N/A   Clear
5:15 AM 21.2 °F 10.9 °F 10.4 °F 63% 30.19 in 10.0 mi NW 9.2 mph - N/A   Clear
5:35 AM 17.6 °F 7.3 °F 8.6 °F 68% 30.20 in 10.0 mi WNW 8.1 mph - N/A   Clear
5:55 AM 17.6 °F 8.2 °F 10.4 °F 73% 30.20 in 10.0 mi WNW 6.9 mph - N/A   Clear
6:15 AM 15.8 °F 7.2 °F 8.6 °F 73% 30.20 in 10.0 mi West 5.8 mph - N/A   Clear
6:35 AM 15.8 °F 5.1 °F 8.6 °F 73% 30.20 in 10.0 mi NW 8.1 mph - N/A   Clear
6:55 AM 15.8 °F 4.2 °F 8.6 °F 73% 30.21 in 10.0 mi NNW 9.2 mph - N/A   Clear
7:15 AM 15.8 °F 3.4 °F 8.6 °F 73% 30.22 in 10.0 mi WNW 10.4 mph - N/A   Clear
7:35 AM 15.8 °F 3.4 °F 8.6 °F 73% 30.22 in 10.0 mi NNW 10.4 mph - N/A   Clear
7:55 AM 17.6 °F 7.3 °F 8.6 °F 68% 30.23 in 10.0 mi NW 8.1 mph - N/A   Clear
8:15 AM 15.8 °F 4.2 °F 8.6 °F 73% 30.24 in 10.0 mi WNW 9.2 mph - N/A   Clear
8:35 AM 17.6 °F 8.2 °F 10.4 °F 73% 30.24 in 10.0 mi NW 6.9 mph - N/A   Clear
8:55 AM 21.2 °F 10.9 °F 12.2 °F 68% 30.25 in 10.0 mi West 9.2 mph - N/A   Clear
9:15 AM 21.2 °F 10.1 °F 10.4 °F 63% 30.26 in 10.0 mi WNW 10.4 mph - N/A   Clear
9:35 AM 23.0 °F 11.1 °F 10.4 °F 59% 30.26 in 10.0 mi WNW 12.7 mph - N/A   Clear
9:55 AM 28.4 °F 19.1 °F 10.4 °F 47% 30.27 in 10.0 mi WNW 10.4 mph - N/A   Clear
10:15 AM 28.4 °F 17.5 °F 8.6 °F 43% 30.27 in 10.0 mi NW 13.8 mph - N/A   Clear
10:35 AM 30.2 °F 19.8 °F 8.6 °F 40% 30.27 in 10.0 mi WNW 13.8 mph - N/A   Clear
10:55 AM 30.2 °F 19.8 °F 8.6 °F 40% 30.27 in 10.0 mi WNW 13.8 mph - N/A   Clear
11:15 AM 32.0 °F 22.5 °F 8.6 °F 38% 30.27 in 10.0 mi WNW 12.7 mph 20.7 mph N/A   Clear
11:35 AM 32.0 °F 21.2 °F 10.4 °F 41% 30.26 in 10.0 mi NW 16.1 mph 19.6 mph N/A   Clear
11:55 AM 33.8 °F 22.8 °F 12.2 °F 41% 30.25 in 10.0 mi West 18.4 mph - N/A   Clear
12:15 PM 33.8 °F 22.5 °F 12.2 °F 41% 30.23 in 10.0 mi WNW 19.6 mph - N/A   Clear
12:35 PM 35.6 °F 25.2 °F 14.0 °F 41% 30.21 in 10.0 mi WNW 18.4 mph 24.2 mph N/A   Clear
12:55 PM 35.6 °F 24.8 °F 12.2 °F 38% 30.20 in 10.0 mi WNW 19.6 mph 24.2 mph N/A   Clear
1:15 PM 37.4 °F 27.8 °F 12.2 °F 36% 30.18 in 10.0 mi WNW 17.3 mph - N/A   Clear
1:35 PM 39.2 °F 31.2 °F 12.2 °F 33% 30.17 in 10.0 mi West 13.8 mph 21.9 mph N/A   Clear
1:55 PM 39.2 °F 32.0 °F 10.4 °F 31% 30.16 in 10.0 mi WNW 11.5 mph 21.9 mph N/A   Clear
2:15 PM 39.2 °F 33.0 °F 10.4 °F 31% 30.16 in 10.0 mi NW 9.2 mph 19.6 mph N/A   Clear
2:35 PM 41.0 °F 34.3 °F 10.4 °F 29% 30.15 in 10.0 mi WNW 11.5 mph 19.6 mph N/A   Clear
2:55 PM 41.0 °F 32.8 °F 10.4 °F 29% 30.15 in 10.0 mi WNW 16.1 mph 20.7 mph N/A   Clear
3:15 PM 41.0 °F 34.3 °F 8.6 °F 26% 30.14 in 10.0 mi WNW 11.5 mph 19.6 mph N/A   Clear
3:35 PM 41.0 °F 33.1 °F 10.4 °F 29% 30.13 in 10.0 mi WNW 15.0 mph 26.5 mph N/A   Clear
4:15 PM 42.8 °F 37.0 °F 10.4 °F 27% 30.13 in 10.0 mi WNW 10.4 mph - N/A   Clear
4:35 PM 42.8 °F 36.2 °F 10.4 °F 27% 30.13 in 10.0 mi WNW 12.7 mph - N/A   Clear
5:15 PM 41.0 °F 34.3 °F 10.4 °F 29% 30.13 in 10.0 mi WNW 11.5 mph - N/A   Clear
5:35 PM 41.0 °F 34.7 °F 10.4 °F 29% 30.13 in 10.0 mi West 10.4 mph - N/A   Clear
5:55 PM 35.6 °F 29.9 °F 10.4 °F 35% 30.13 in 10.0 mi West 6.9 mph - N/A   Clear
6:15 PM 33.8 °F 26.4 °F 10.4 °F 38% 30.13 in 10.0 mi WSW 9.2 mph - N/A   Clear
6:35 PM 33.8 °F 26.4 °F 12.2 °F 41% 30.13 in 10.0 mi WSW 9.2 mph - N/A   Clear
6:55 PM 32.0 °F 25.6 °F 10.4 °F 41% 30.13 in 10.0 mi WSW 6.9 mph - N/A   Clear
7:15 PM 30.2 °F 23.4 °F 10.4 °F 44% 30.13 in 10.0 mi WSW 6.9 mph - N/A   Clear
7:35 PM 30.2 °F 23.4 °F 12.2 °F 47% 30.13 in 10.0 mi WSW 6.9 mph - N/A   Clear
7:55 PM 30.2 °F 24.3 °F 12.2 °F 47% 30.13 in 10.0 mi WSW 5.8 mph - N/A   Clear
8:15 PM 28.4 °F 21.2 °F 10.4 °F 47% 30.12 in 10.0 mi WSW 6.9 mph - N/A   Clear
8:55 PM 28.4 °F 22.2 °F 10.4 °F 47% 30.12 in 10.0 mi WSW 5.8 mph - N/A   Clear
9:15 PM 28.4 °F 21.2 °F 12.2 °F 51% 30.12 in 10.0 mi West 6.9 mph - N/A   Clear
9:35 PM 26.6 °F 19.1 °F 12.2 °F 55% 30.12 in 10.0 mi WSW 6.9 mph - N/A   Clear
9:55 PM 28.4 °F 20.4 °F 12.2 °F 51% 30.12 in 10.0 mi West 8.1 mph - N/A   Clear
10:15 PM 28.4 °F 19.7 °F 12.2 °F 51% 30.12 in 10.0 mi West 9.2 mph - N/A   Clear
10:35 PM 28.4 °F 20.4 °F 12.2 °F 51% 30.12 in 10.0 mi West 8.1 mph - N/A   Clear
10:55 PM 28.4 °F 19.7 °F 12.2 °F 51% 30.13 in 10.0 mi WSW 9.2 mph - N/A   Clear
11:15 PM 28.4 °F 20.4 °F 12.2 °F 51% 30.12 in 10.0 mi West 8.1 mph - N/A   Clear
11:35 PM 26.6 °F 19.1 °F 12.2 °F 55% 30.12 in 10.0 mi West 6.9 mph - N/A   Clear
11:55 PM 28.4 °F 20.4 °F 15.8 °F 59% 30.13 in 10.0 mi West 8.1 mph - N/A   Clear